Location: Kampong Paya Jaras Dalam
(3.1833°N, 101.5500°E)
Time: 04:44:37
(UTC+00:00)

Resurs 01 Rocket - Pass Details

Date: 15 May 2026
Orbit: 627 x 635 km, 97.7° (Epoch: 7 June)

Event Time Altitude Azimuth Distance (km) Brightness Sun altitude
Exits shadow 12:50:37 15° 191° (S) 1,685 3.7 -22.5°
Maximum altitude 12:53:56 44° 258° (WSW) 864 2.6 -23.3°
Drops below altitude 10° 12:58:05 10° 331° (NNW) 1,993 4.8 -24.2°
Sets 13:00:20 0° 338° (NNW) 2,898 5.6 -24.7°
